Location: Chomutov
(50.4500°N, 13.4333°E)
Time: 14:21:11
(UTC+02:00)

First-Move - Visible Passes

Search period start: 21 September 2021 00:00
Search period end: 01 October 2021 00:00
Orbit: 576 x 665 km, 97.6° (Epoch: 20 September)

Date Brightness Start Highest point End Pass type
(mag) Time Alt. Az. Time Alt. Az. Time Alt. Az.
21 Sep ? 05:13:03 10° NNE 05:16:58 32° E 05:20:46 10° SSE visible
22 Sep ? 05:30:20 10° NNE 05:34:31 47° E 05:38:35 10° S visible
23 Sep ? 05:47:42 10° NNE 05:52:01 71° ESE 05:56:12 10° S visible
24 Sep ? 04:30:45 10° ENE 04:32:42 13° E 04:34:37 10° ESE visible
24 Sep ? 06:05:10 10° N 06:09:28 78° WNW 06:13:39 10° SSW visible
25 Sep ? 04:47:21 10° NE 04:50:22 19° E 04:53:19 10° SE visible
26 Sep ? 05:04:21 10° NE 05:07:59 27° E 05:11:31 10° SSE visible
27 Sep ? 05:21:32 10° NNE 05:25:33 39° E 05:29:26 10° SSE visible
28 Sep ? 05:38:51 10° NNE 05:43:03 58° E 05:47:08 10° S visible
29 Sep ? 04:23:02 10° ENE 04:23:38 10° E 04:24:14 10° E visible
29 Sep ? 05:56:16 10° NNE 06:00:31 87° E 06:04:39 10° SSW visible
30 Sep ? 04:38:49 10° NE 04:41:19 15° E 04:43:47 10° SE visible
30 Sep ? 06:13:45 10° N 06:17:57 63° WNW 06:22:01 10° SSW visible
